Flag for U.S.A. Weather past 2 weeks in Gainesville, Florida, U.S.A.

Now
72 °F

Sunny.


Feels Like: 73 °F
Forecast: 59 / 83 °F
Wind: 6 mph from West

Location: Gainesville Regional Airport


UV Index: 7 (High)

Visibility: 10 mi


Pressure: 29.93 "Hg

Humidity: 76%

Dew point: 64 °F

Location of GainesvilleLocation

Historic Weather in Gainesville

°F

Gainesville temperature yesterday

Maximum temperature yesterday: 80 °F (at 2:53 PM)
Minimum temperature yesterday: 52 °F (at 6:00 AM)
Average temperature yesterday: 66 °F

Past Weeks' High & Low Weather Summary

 TemperatureHumidityPressure
High85 °F (Apr 14, 2:53 PM)100% (Apr 18, 9:53 PM)30.31 "Hg (Apr 18, 9:53 PM)
Low42 °F (Apr 16, 6:53 AM)32% (Apr 10, 3:53 PM)29.70 "Hg (Apr 8, 3:53 PM)
Average65 °F77%30.05 "Hg
* Reported Apr 8 9:53 AM — Apr 23 9:53 AM, Gainesville, Weather by CustomWeather, © 2014

Note: Actual official high and low records may vary slightly from our data, if they occured in-between our weather recording intervals... More about our weather records

Advertising

Historic Weather Conditions — Data for Previous 24 hours

 ConditionsComfort  
Time TempWeatherWind HumidityBarometerVisibility
9:53 AM
Apr 23
72 °FSunny.6 mph76%29.93 "Hg10 mi
8:53 AM66 °FSunny.7 mph90%29.93 "Hg10 mi
7:53 AM61 °FFog.7 mph97%29.92 "Hg5 mi
6:53 AM59 °FClear.3 mph100%29.90 "Hg7 mi
5:53 AM60 °FClear.3 mph96%29.88 "Hg10 mi
4:53 AM60 °FClear.6 mph100%29.88 "Hg9 mi
3:53 AM61 °FClear.5 mph97%29.88 "Hg9 mi
2:53 AM61 °FClear.6 mph97%29.88 "Hg9 mi
1:53 AM62 °FClear.6 mph93%29.88 "Hg9 mi
12:53 AM62 °FClear.5 mph93%29.90 "Hg8 mi
11:53 PM
Apr 22
63 °FClear.5 mph90%29.89 "Hg10 mi
10:53 PM64 °FClear.8 mph87%29.90 "Hg10 mi
9:53 PM66 °FClear.9 mph75%29.89 "Hg8 mi
8:53 PM68 °FSunny.9 mph70%29.87 "Hg9 mi
7:53 PM71 °FSunny.8 mph63%29.85 "Hg9 mi
6:53 PM76 °FSunny.13 mph54%29.85 "Hg10 mi
5:53 PM79 °FScattered clouds.12 mph48%29.85 "Hg10 mi
4:53 PM77 °FPartly sunny.13 mph50%29.85 "Hg10 mi
3:53 PM79 °FPartly sunny.14 mph48%29.86 "Hg10 mi
2:53 PM80 °FScattered clouds.9 mph47%29.89 "Hg10 mi
1:53 PM78 °FPassing clouds.12 mph50%29.91 "Hg10 mi
12:53 PM76 °FBroken clouds.8 mph58%29.93 "Hg10 mi
11:53 AM75 °FScattered clouds.N/A60%29.95 "Hg10 mi
10:53 AM74 °FSunny.10 mph64%29.96 "Hg10 mi
Weather by CustomWeather, © 2014

See weather overview